Location: Poughquag
(41.6090°N, 73.6820°W)
Time: 13:12:08
(UTC-04:00)

Altair - Pass Details

Date: 02 June 2020
Orbit: 1501 x 1683 km, 47.2° (Epoch: 05 July)

Event Time Altitude Azimuth Distance (km) Brightness Sun altitude
Rises 01:59:49 0° 284° (WNW) 4,900 10.1 -24.3°
Reaches altitude 10° 02:03:00 10° 287° (WNW) 3,927 9.6 -24.1°
Maximum altitude 02:13:07 67° 10° (N) 1,801 8.0 -23.5°
Drops below altitude 10° 02:23:13 10° 92° (E) 3,926 9.9 -22.8°
Sets 02:26:24 0° 95° (E) 4,900 10.4 -22.6°
